| time (UTC) | temp F | wind direction | speed MPH | gust MPH | rain 1hr in | rain 24hr in | rain mn in | humidity % | barometer mb |
| 20260510191543 | 82 | 10 | 2.0 | 12.0 | 0.00 | 0.39 | 0.00 | 76 | 1016.0 |
| 20260510191027 | 81 | 25 | 6.0 | 12.0 | 0.00 | 0.39 | 0.00 | 75 | 1016.1 |
| 20260510190526 | 82 | 35 | 4.0 | 11.0 | 0.00 | 0.39 | 0.00 | 74 | 1016.2 |
| 20260510190044 | 82 | 9 | 4.0 | 11.0 | 0.00 | 0.39 | 0.00 | 75 | 1016.2 |
| 20260510185529 | 81 | 336 | 7.0 | 11.0 | 0.00 | 0.68 | 0.00 | 74 | 1016.2 |
| 20260510185027 | 82 | 338 | 3.0 | 11.0 | 0.00 | 0.68 | 0.00 | 75 | 1016.1 |
| 20260510184542 | 82 | 330 | 5.0 | 15.0 | 0.00 | 0.68 | 0.00 | 75 | 1016.1 |
| 20260510184028 | 82 | 339 | 3.0 | 15.0 | 0.00 | 0.68 | 0.00 | 76 | 1016.3 |
| 20260510183527 | 82 | 27 | 5.0 | 12.0 | 0.00 | 0.68 | 0.00 | 74 | 1016.2 |
| 20260510183047 | 82 | 345 | 4.0 | 14.0 | 0.00 | 0.68 | 0.00 | 74 | 1016.3 |
| 20260510182527 | 82 | 38 | 4.0 | 14.0 | 0.00 | 0.68 | 0.00 | 74 | 1016.4 |
| 20260510182026 | 83 | 3 | 5.0 | 14.0 | 0.00 | 0.68 | 0.00 | 74 | 1016.5 |
| 20260510181543 | 83 | 323 | 4.0 | 10.0 | 0.00 | 0.68 | 0.00 | 74 | 1016.5 |
| 20260510181027 | 82 | 0 | 1.0 | 10.0 | 0.00 | 0.68 | 0.00 | 75 | 1016.4 |
| 20260510180527 | 83 | 352 | 4.0 | 10.0 | 0.00 | 0.68 | 0.00 | 71 | 1016.5 |
| 20260510180056 | 83 | 0 | 1.0 | 5.0 | 0.00 | 0.68 | 0.00 | 74 | 1016.7 |
| 20260510175527 | 83 | 0 | 0.0 | 6.0 | 0.00 | 0.97 | 0.00 | 73 | 1016.7 |
| 20260510175028 | 83 | 0 | 0.0 | 7.0 | 0.00 | 0.97 | 0.00 | 75 | 1016.8 |
| 20260510174543 | 83 | 327 | 2.0 | 7.0 | 0.00 | 0.97 | 0.00 | 75 | 1016.8 |
| 20260510174029 | 83 | 1 | 2.0 | 7.0 | 0.00 | 0.97 | 0.00 | 74 | 1016.9 |
| 20260510173526 | 82 | 72 | 1.0 | 6.0 | 0.00 | 0.97 | 0.00 | 75 | 1017.0 |
| 20260510173042 | 83 | 309 | 1.0 | 6.0 | 0.00 | 0.97 | 0.00 | 73 | 1017.1 |
| 20260510172527 | 82 | 0 | 2.0 | 5.0 | 0.00 | 0.97 | 0.00 | 77 | 1017.1 |
| 20260510172027 | 82 | 44 | 0.0 | 5.0 | 0.00 | 0.97 | 0.00 | 77 | 1017.2 |
| 20260510171541 | 81 | 13 | 1.0 | 9.0 | 0.00 | 0.97 | 0.00 | 77 | 1017.2 |
| 20260510171026 | 81 | 353 | 4.0 | 9.0 | 0.00 | 0.97 | 0.00 | 76 | 1017.1 |
| 20260510170526 | 81 | 16 | 1.0 | 6.0 | 0.00 | 0.97 | 0.00 | 79 | 1017.1 |
| 20260510170041 | 81 | 0 | 1.0 | 7.0 | 0.00 | 0.97 | 0.00 | 78 | 1017.1 |
| 20260510165526 | 81 | 309 | 3.0 | 7.0 | 0.00 | 1.12 | 0.00 | 78 | 1017.3 |
| 20260510165029 | 81 | 0 | 0.0 | 5.0 | 0.00 | 1.12 | 0.00 | 79 | 1017.3 |
| 20260510164553 | 81 | 0 | 0.0 | 5.0 | 0.00 | 1.12 | 0.00 | 78 | 1017.5 |
| 20260510164026 | 81 | 0 | 0.0 | 3.0 | 0.00 | 1.12 | 0.00 | 80 | 1017.5 |
| 20260510163527 | 80 | 0 | 0.0 | 4.0 | 0.00 | 1.12 | 0.00 | 82 | 1017.5 |
| 20260510163048 | 80 | 0 | 0.0 | 4.0 | 0.00 | 1.12 | 0.00 | 81 | 1017.6 |
| 20260510162526 | 79 | 0 | 0.0 | 7.0 | 0.00 | 1.12 | 0.00 | 83 | 1017.6 |
| 20260510162026 | 78 | 0 | 2.0 | 7.0 | 0.00 | 1.12 | 0.00 | 86 | 1017.6 |
| 20260510161548 | 78 | 166 | 3.0 | 7.0 | 0.00 | 1.12 | 0.00 | 83 | 1017.6 |
| 20260510161027 | 79 | 70 | 0.0 | 4.0 | 0.00 | 1.12 | 0.00 | 87 | 1017.6 |
| 20260510160527 | 79 | 0 | 0.0 | 4.0 | 0.00 | 1.12 | 0.00 | 88 | 1017.5 |
| 20260510160056 | 78 | 0 | 0.0 | 4.0 | 0.00 | 1.12 | 0.00 | 90 | 1017.4 |
| 20260510155531 | 78 | 1 | 0.0 | 7.0 | 0.00 | 1.39 | 0.00 | 91 | 1017.4 |
| 20260510155026 | 77 | 0 | 1.0 | 7.0 | 0.00 | 1.39 | 0.00 | 92 | 1017.4 |
| 20260510154557 | 76 | 0 | 1.0 | 7.0 | 0.00 | 1.39 | 0.00 | 93 | 1017.3 |
| 20260510154026 | 76 | 0 | 2.0 | 7.0 | 0.00 | 1.39 | 0.00 | 94 | 1017.3 |
| 20260510153526 | 75 | 1 | 0.0 | 7.0 | 0.00 | 1.39 | 0.00 | 97 | 1017.3 |
| 20260510153040 | 74 | 0 | 3.0 | 7.0 | 0.00 | 1.39 | 0.00 | 99 | 1017.4 |
| 20260510152527 | 73 | 0 | 3.0 | 6.0 | 0.00 | 1.39 | 0.00 | 100 | 1017.5 |
| 20260510152028 | 74 | 0 | 0.0 | 4.0 | 0.00 | 1.39 | 0.00 | 100 | 1017.3 |
| 20260510151547 | 73 | 0 | 0.0 | 4.0 | 0.00 | 1.39 | 0.00 | 100 | 1017.3 |
| 20260510151027 | 73 | 56 | 0.0 | 4.0 | 0.00 | 1.39 | 0.00 | 100 | 1017.4 |
| 20260510150527 | 72 | 41 | 0.0 | 3.0 | 0.00 | 1.39 | 0.00 | 100 | 1017.4 |
| 20260510150050 | 72 | 326 | 0.0 | 3.0 | 0.00 | 1.39 | 0.00 | 100 | 1017.6 |
| 20260510145526 | 72 | 53 | 1.0 | 3.0 | 0.00 | 1.66 | 0.00 | 100 | 1017.6 |
| 20260510145027 | 71 | 0 | 0.0 | 4.0 | 0.00 | 1.66 | 0.00 | 100 | 1017.6 |
| 20260510144542 | 71 | 0 | 0.0 | 4.0 | 0.00 | 1.66 | 0.00 | 100 | 1017.6 |
| 20260510144027 | 71 | 0 | 0.0 | 4.0 | 0.00 | 1.66 | 0.00 | 100 | 1017.7 |
| 20260510143526 | 70 | 147 | 0.0 | 4.0 | 0.00 | 1.66 | 0.00 | 100 | 1017.7 |
| 20260510143047 | 70 | 0 | 0.0 | 4.0 | 0.00 | 1.66 | 0.00 | 100 | 1017.7 |
| 20260510142526 | 70 | 0 | 0.0 | 4.0 | 0.00 | 1.66 | 0.00 | 100 | 1017.8 |
| 20260510142026 | 69 | 142 | 0.0 | 5.0 | 0.00 | 1.66 | 0.00 | 100 | 1017.8 |
| 20260510141543 | 69 | 0 | 0.0 | 5.0 | 0.00 | 1.66 | 0.00 | 100 | 1017.8 |
| 20260510141028 | 69 | 191 | 1.0 | 4.0 | 0.00 | 1.66 | 0.00 | 100 | 1017.8 |
| 20260510140526 | 69 | 0 | 0.0 | 3.0 | 0.00 | 1.66 | 0.00 | 100 | 1017.8 |
| 20260510140045 | 69 | 136 | 0.0 | 3.0 | 0.00 | 1.66 | 0.00 | 100 | 1017.7 |
| 20260510135526 | 69 | 354 | 1.0 | 3.0 | 0.00 | 2.61 | 0.00 | 100 | 1017.6 |
| 20260510135026 | 69 | 0 | 0.0 | 2.0 | 0.00 | 2.61 | 0.00 | 100 | 1017.5 |
| 20260510134542 | 69 | 0 | 0.0 | 3.0 | 0.00 | 2.61 | 0.00 | 100 | 1017.4 |
| 20260510134025 | 68 | 0 | 0.0 | 4.0 | 0.00 | 2.61 | 0.00 | 100 | 1017.5 |
| 20260510133530 | 68 | 17 | 0.0 | 4.0 | 0.00 | 2.61 | 0.00 | 100 | 1017.5 |
| 20260510133047 | 68 | 0 | 0.0 | 1.0 | 0.00 | 2.61 | 0.00 | 100 | 1017.3 |
| 20260510132530 | 67 | 0 | 0.0 | 1.0 | 0.00 | 2.61 | 0.00 | 100 | 1017.2 |
| 20260510132029 | 67 | 0 | 0.0 | 1.0 | 0.00 | 2.61 | 0.00 | 100 | 1017.2 |
| 20260510131544 | 67 | 0 | 0.0 | 3.0 | 0.00 | 2.61 | 0.00 | 100 | 1017.1 |
| 20260510131030 | 67 | 0 | 1.0 | 3.0 | 0.00 | 2.61 | 0.00 | 100 | 1017.1 |
| 20260510130530 | 67 | 132 | 0.0 | 2.0 | 0.00 | 2.61 | 0.00 | 100 | 1017.1 |
| 20260510130045 | 67 | 0 | 0.0 | 1.0 | 0.00 | 2.61 | 0.00 | 100 | 1017.0 |
| 20260510125529 | 67 | 0 | 0.0 | 1.0 | 0.00 | 3.40 | 0.00 | 100 | 1016.9 |
| 20260510125029 | 66 | 0 | 0.0 | 2.0 | 0.00 | 3.40 | 0.00 | 100 | 1016.8 |
| 20260510124607 | 66 | 0 | 0.0 | 2.0 | 0.00 | 3.40 | 0.00 | 100 | 1016.8 |
| 20260510124030 | 66 | 0 | 0.0 | 1.0 | 0.00 | 3.40 | 0.00 | 100 | 1016.7 |
| 20260510123531 | 66 | 113 | 0.0 | 1.0 | 0.00 | 3.40 | 0.00 | 100 | 1016.7 |
| 20260510123049 | 66 | 0 | 0.0 | 2.0 | 0.00 | 3.40 | 0.00 | 100 | 1016.7 |
| 20260510122531 | 66 | 0 | 0.0 | 2.0 | 0.00 | 3.40 | 0.00 | 100 | 1016.7 |
| 20260510122030 | 66 | 0 | 0.0 | 2.0 | 0.00 | 3.40 | 0.00 | 100 | 1016.7 |
| 20260510121547 | 65 | 0 | 0.0 | 1.0 | 0.00 | 3.40 | 0.00 | 100 | 1016.6 |
| 20260510121031 | 65 | 0 | 0.0 | 1.0 | 0.00 | 3.40 | 0.00 | 100 | 1016.5 |
| 20260510120534 | 65 | 0 | 0.0 | 2.0 | 0.00 | 3.40 | 0.00 | 100 | 1016.4 |
| 20260510120047 | 65 | 0 | 0.0 | 3.0 | 0.00 | 3.40 | 0.00 | 100 | 1016.3 |
| 20260510115530 | 65 | 0 | 0.0 | 4.0 | 0.00 | 3.40 | 0.00 | 100 | 1016.1 |
| 20260510115030 | 65 | 359 | 0.0 | 4.0 | 0.00 | 3.40 | 0.00 | 100 | 1016.0 |
| 20260510114544 | 65 | 318 | 0.0 | 4.0 | 0.00 | 3.40 | 0.00 | 100 | 1015.9 |
| 20260510114029 | 65 | 0 | 0.0 | 3.0 | 0.00 | 3.40 | 0.00 | 100 | 1015.9 |
| 20260510113530 | 65 | 0 | 0.0 | 3.0 | 0.00 | 3.40 | 0.00 | 100 | 1015.8 |
| 20260510113045 | 65 | 0 | 0.0 | 3.0 | 0.00 | 3.40 | 0.00 | 100 | 1015.6 |
| 20260510112531 | 65 | 0 | 0.0 | 4.0 | 0.00 | 3.40 | 0.00 | 100 | 1015.5 |
| 20260510112033 | 65 | 338 | 2.0 | 4.0 | 0.00 | 3.40 | 0.00 | 100 | 1015.4 |
| 20260510111602 | 65 | 0 | 0.0 | 2.0 | 0.00 | 3.40 | 0.00 | 100 | 1015.2 |
| 20260510111030 | 65 | 0 | 0.0 | 2.0 | 0.00 | 3.40 | 0.00 | 100 | 1015.1 |
| 20260510110529 | 65 | 0 | 0.0 | 3.0 | 0.00 | 3.40 | 0.00 | 100 | 1014.9 |
| 20260510110049 | 65 | 327 | 1.0 | 3.0 | 0.00 | 3.40 | 0.00 | 100 | 1015.0 |
| 20260510105530 | 65 | 39 | 0.0 | 2.0 | 0.00 | 3.40 | 0.00 | 100 | 1014.9 |
| 20260510105030 | 65 | 0 | 0.0 | 2.0 | 0.00 | 3.40 | 0.00 | 100 | 1014.6 |
| 20260510104602 | 65 | 117 | 0.0 | 2.0 | 0.00 | 3.40 | 0.00 | 100 | 1014.6 |
| 20260510104030 | 65 | 0 | 0.0 | 2.0 | 0.00 | 3.40 | 0.00 | 100 | 1014.6 |
| 20260510103530 | 65 | 0 | 0.0 | 1.0 | 0.00 | 3.40 | 0.00 | 100 | 1014.4 |
| 20260510103044 | 65 | 0 | 0.0 | 1.0 | 0.00 | 3.40 | 0.00 | 100 | 1014.3 |
| 20260510102530 | 65 | 0 | 0.0 | 1.0 | 0.00 | 3.40 | 0.00 | 100 | 1014.3 |
| 20260510102029 | 65 | 125 | 0.0 | 1.0 | 0.00 | 3.40 | 0.00 | 100 | 1014.1 |
| 20260510101545 | 65 | 0 | 0.0 | 1.0 | 0.00 | 3.40 | 0.00 | 100 | 1014.1 |
| 20260510101029 | 65 | 0 | 0.0 | 1.0 | 0.00 | 3.40 | 0.00 | 100 | 1014.1 |
| 20260510100532 | 65 | 0 | 0.0 | 1.0 | 0.00 | 3.40 | 0.00 | 100 | 1014.0 |
| 20260510100042 | 65 | 0 | 0.0 | 1.0 | 0.00 | 3.40 | 0.00 | 100 | 1014.0 |
| 20260510095530 | 65 | 0 | 0.0 | 1.0 | 0.00 | 4.53 | 0.00 | 100 | 1014.0 |
| 20260510095031 | 65 | 0 | 0.0 | 1.0 | 0.00 | 4.53 | 0.00 | 100 | 1014.0 |
| 20260510094546 | 65 | 0 | 0.0 | 1.0 | 0.00 | 4.53 | 0.00 | 100 | 1014.0 |
| 20260510094029 | 65 | 179 | 0.0 | 4.0 | 0.00 | 4.53 | 0.00 | 100 | 1014.0 |
| 20260510093530 | 65 | 0 | 1.0 | 6.0 | 0.00 | 4.53 | 0.00 | 100 | 1014.0 |
| 20260510093041 | 65 | 0 | 2.0 | 6.0 | 0.00 | 4.53 | 0.00 | 100 | 1013.9 |
| 20260510092531 | 65 | 195 | 1.0 | 7.0 | 0.00 | 4.53 | 0.00 | 100 | 1013.9 |
| 20260510092029 | 65 | 177 | 1.0 | 7.0 | 0.00 | 4.53 | 0.00 | 100 | 1013.9 |
| 20260510091554 | 65 | 163 | 1.0 | 5.0 | 0.00 | 4.53 | 0.00 | 100 | 1013.9 |
| 20260510091030 | 65 | 166 | 2.0 | 5.0 | 0.00 | 4.53 | 0.00 | 100 | 1014.0 |
| 20260510090530 | 65 | 198 | 2.0 | 4.0 | 0.00 | 4.53 | 0.00 | 100 | 1013.9 |
| 20260510090100 | 65 | 209 | 2.0 | 4.0 | 0.00 | 4.53 | 0.00 | 100 | 1014.0 |
| 20260510085529 | 65 | 162 | 2.0 | 4.0 | 0.00 | 4.92 | 0.00 | 100 | 1013.9 |
| 20260510085030 | 65 | 161 | 0.0 | 4.0 | 0.00 | 4.92 | 0.00 | 100 | 1013.8 |
| 20260510084553 | 65 | 143 | 1.0 | 4.0 | 0.00 | 4.92 | 0.00 | 100 | 1013.8 |
| 20260510084030 | 65 | 167 | 2.0 | 3.0 | 0.00 | 4.92 | 0.00 | 100 | 1013.8 |
| 20260510083530 | 65 | 0 | 0.0 | 2.0 | 0.00 | 4.92 | 0.00 | 100 | 1013.7 |
| 20260510083042 | 65 | 148 | 0.0 | 2.0 | 0.00 | 4.92 | 0.00 | 100 | 1013.7 |
| 20260510082529 | 65 | 0 | 0.0 | 1.0 | 0.00 | 4.92 | 0.00 | 100 | 1013.6 |
| 20260510082029 | 65 | 0 | 0.0 | 2.0 | 0.00 | 4.92 | 0.00 | 100 | 1013.6 |
| 20260510081545 | 65 | 155 | 0.0 | 2.0 | 0.00 | 4.92 | 0.00 | 100 | 1013.5 |
| 20260510081030 | 65 | 131 | 0.0 | 1.0 | 0.00 | 4.92 | 0.00 | 100 | 1013.6 |
| 20260510080529 | 65 | 0 | 0.0 | 0.0 | 0.00 | 4.92 | 0.00 | 100 | 1013.5 |
| 20260510080041 | 66 | 0 | 0.0 | 2.0 | 0.00 | 4.92 | 0.00 | 100 | 1013.4 |
| 20260510075529 | 66 | 0 | 0.0 | 2.0 | 0.00 | 4.92 | 0.00 | 100 | 1013.4 |
| 20260510075030 | 66 | 0 | 0.0 | 2.0 | 0.00 | 4.92 | 0.00 | 100 | 1013.5 |
| 20260510074547 | 66 | 139 | 0.0 | 2.0 | 0.00 | 4.92 | 0.00 | 100 | 1013.4 |
| 20260510074030 | 66 | 0 | 0.0 | 2.0 | 0.00 | 4.92 | 0.00 | 100 | 1013.4 |
| 20260510073528 | 66 | 124 | 0.0 | 2.0 | 0.00 | 4.92 | 0.00 | 100 | 1013.2 |
| 20260510073044 | 66 | 0 | 0.0 | 2.0 | 0.00 | 4.92 | 0.00 | 100 | 1013.2 |
| 20260510072526 | 66 | 0 | 0.0 | 5.0 | 0.00 | 4.92 | 0.00 | 100 | 1013.2 |
| 20260510072030 | 66 | 0 | 0.0 | 5.0 | 0.00 | 4.92 | 0.00 | 100 | 1013.3 |
| 20260510071543 | 66 | 183 | 1.0 | 5.0 | 0.00 | 4.92 | 0.00 | 100 | 1013.3 |
| 20260510071029 | 66 | 184 | 2.0 | 5.0 | 0.00 | 4.92 | 0.00 | 100 | 1013.3 |
| 20260510070530 | 66 | 181 | 1.0 | 5.0 | 0.00 | 4.92 | 0.00 | 100 | 1013.4 |
| 20260510070048 | 66 | 174 | 1.0 | 6.0 | 0.00 | 4.92 | 0.00 | 100 | 1013.4 |
| 20260510065530 | 66 | 149 | 1.0 | 6.0 | 0.00 | 4.92 | 0.00 | 100 | 1013.5 |
| 20260510065029 | 66 | 165 | 1.0 | 5.0 | 0.00 | 4.92 | 0.00 | 100 | 1013.4 |
| 20260510064557 | 66 | 155 | 1.0 | 4.0 | 0.00 | 4.92 | 0.00 | 100 | 1013.4 |
| 20260510064029 | 66 | 180 | 2.0 | 4.0 | 0.00 | 4.92 | 0.00 | 100 | 1013.4 |
| 20260510063531 | 66 | 158 | 0.0 | 2.0 | 0.00 | 4.92 | 0.00 | 100 | 1013.5 |
| 20260510063046 | 66 | 0 | 0.0 | 1.0 | 0.00 | 4.92 | 0.00 | 100 | 1013.5 |
| 20260510062529 | 67 | 150 | 0.0 | 1.0 | 0.00 | 4.92 | 0.00 | 100 | 1013.5 |
| 20260510062029 | 67 | 0 | 0.0 | 1.0 | 0.00 | 4.92 | 0.00 | 100 | 1013.5 |
| 20260510061547 | 67 | 0 | 0.0 | 1.0 | 0.00 | 4.92 | 0.00 | 100 | 1013.5 |
| 20260510061027 | 67 | 0 | 0.0 | 0.0 | 0.00 | 4.92 | 0.00 | 100 | 1013.6 |
| 20260510060530 | 67 | 0 | 0.0 | 0.0 | 0.00 | 4.92 | 0.00 | 100 | 1013.6 |
| 20260510060046 | 67 | 0 | 0.0 | 0.0 | 0.00 | 4.92 | 0.00 | 100 | 1013.7 |
| 20260510055530 | 67 | 0 | 0.0 | 3.0 | 0.00 | 5.03 | 0.00 | 100 | 1013.7 |
| 20260510055030 | 66 | 0 | 0.0 | 3.0 | 0.00 | 5.03 | 0.00 | 100 | 1013.6 |
| 20260510054543 | 66 | 107 | 0.0 | 0.0 | 0.00 | 5.03 | 0.00 | 100 | 1013.4 |
| 20260510054029 | 66 | 0 | 0.0 | 1.0 | 0.00 | 5.03 | 0.00 | 100 | 1013.4 |
| 20260510053529 | 66 | 0 | 0.0 | 1.0 | 0.00 | 5.03 | 0.00 | 100 | 1013.5 |
| 20260510053042 | 66 | 0 | 0.0 | 1.0 | 0.00 | 5.03 | 0.00 | 100 | 1013.5 |
| 20260510052529 | 66 | 0 | 0.0 | 1.0 | 0.00 | 5.03 | 0.00 | 100 | 1013.7 |
| 20260510052029 | 67 | 0 | 0.0 | 1.0 | 0.00 | 5.03 | 0.00 | 100 | 1013.8 |
| 20260510051541 | 67 | 0 | 0.0 | 0.0 | 0.00 | 5.03 | 0.00 | 100 | 1013.7 |
| 20260510051029 | 67 | 0 | 0.0 | 2.0 | 0.00 | 5.03 | 0.00 | 100 | 1013.7 |
| 20260510050530 | 67 | 0 | 0.0 | 2.0 | 0.00 | 5.03 | 0.00 | 100 | 1013.8 |
| 20260510050043 | 67 | 0 | 0.0 | 2.0 | 0.00 | 5.03 | 0.00 | 100 | 1013.7 |
| 20260510045529 | 67 | 0 | 0.0 | 2.0 | 0.00 | 5.03 | 5.03 | 100 | 1013.5 |
| 20260510045030 | 67 | 0 | 0.0 | 2.0 | 0.00 | 5.03 | 5.03 | 100 | 1013.5 |
| 20260510044545 | 67 | 0 | 0.0 | 2.0 | 0.00 | 5.03 | 5.03 | 100 | 1013.5 |
| 20260510044029 | 67 | 2 | 1.0 | 2.0 | 0.00 | 5.03 | 5.03 | 100 | 1013.5 |
| 20260510043529 | 67 | 0 | 0.0 | 2.0 | 0.00 | 5.03 | 5.03 | 100 | 1013.6 |
| 20260510043043 | 67 | 0 | 0.0 | 2.0 | 0.00 | 5.03 | 5.03 | 100 | 1013.7 |
| 20260510042529 | 67 | 0 | 0.0 | 2.0 | 0.00 | 5.03 | 5.03 | 100 | 1013.6 |
| 20260510042029 | 67 | 81 | 0.0 | 1.0 | 0.00 | 5.03 | 5.03 | 100 | 1013.6 |
| 20260510041550 | 67 | 0 | 0.0 | 2.0 | 0.00 | 5.03 | 5.03 | 100 | 1013.4 |
| 20260510041030 | 67 | 0 | 0.0 | 2.0 | 0.00 | 5.03 | 5.03 | 100 | 1013.4 |
| 20260510040530 | 67 | 0 | 0.0 | 2.0 | 0.00 | 5.03 | 5.03 | 100 | 1013.4 |
| 20260510040044 | 67 | 0 | 0.0 | 0.0 | 0.00 | 5.03 | 5.03 | 100 | 1013.9 |
| 20260510035529 | 67 | 0 | 0.0 | 0.0 | 0.00 | 5.03 | 5.03 | 100 | 1013.9 |
| 20260510035029 | 68 | 0 | 0.0 | 3.0 | 0.00 | 5.03 | 5.03 | 100 | 1014.1 |
| 20260510034545 | 68 | 0 | 0.0 | 3.0 | 0.00 | 5.03 | 5.03 | 100 | 1014.1 |
| 20260510034029 | 68 | 149 | 1.0 | 3.0 | 0.00 | 5.03 | 5.03 | 100 | 1014.5 |
| 20260510033529 | 68 | 153 | 1.0 | 3.0 | 0.00 | 5.03 | 5.03 | 100 | 1014.5 |
| 20260510033042 | 68 | 0 | 0.0 | 2.0 | 0.00 | 5.03 | 5.03 | 100 | 1014.3 |
| 20260510032529 | 68 | 0 | 1.0 | 2.0 | 0.00 | 5.03 | 5.03 | 100 | 1014.3 |
| 20260510032028 | 68 | 0 | 0.0 | 0.0 | 0.00 | 5.03 | 5.03 | 100 | 1014.1 |
| 20260510031548 | 68 | 0 | 0.0 | 0.0 | 0.00 | 5.03 | 5.03 | 100 | 1014.1 |
| 20260510031026 | 68 | 0 | 0.0 | 0.0 | 0.00 | 5.03 | 5.03 | 100 | 1014.0 |
| 20260510030530 | 68 | 0 | 0.0 | 0.0 | 0.00 | 5.03 | 5.03 | 100 | 1014.0 |
| 20260510030056 | 68 | 0 | 0.0 | 1.0 | 0.00 | 5.03 | 5.03 | 100 | 1014.0 |
| 20260510025530 | 68 | 0 | 0.0 | 1.0 | 0.00 | 5.03 | 5.03 | 100 | 1014.2 |
| 20260510025033 | 68 | 0 | 0.0 | 1.0 | 0.00 | 5.03 | 5.03 | 100 | 1014.4 |
| 20260510024550 | 68 | 0 | 0.0 | 2.0 | 0.00 | 5.03 | 5.03 | 100 | 1014.2 |
| 20260510024030 | 68 | 0 | 0.0 | 6.0 | 0.00 | 5.03 | 5.03 | 100 | 1014.1 |
| 20260510023530 | 68 | 148 | 4.0 | 6.0 | 0.01 | 5.03 | 5.03 | 100 | 1014.2 |
| 20260510023042 | 68 | 141 | 3.0 | 6.0 | 0.03 | 5.03 | 5.03 | 100 | 1014.1 |
| 20260510022530 | 68 | 134 | 2.0 | 6.0 | 0.04 | 5.03 | 5.03 | 100 | 1014.0 |
| 20260510022030 | 68 | 60 | 2.0 | 9.0 | 0.04 | 5.03 | 5.03 | 100 | 1013.5 |
| 20260510021542 | 68 | 43 | 3.0 | 9.0 | 0.04 | 5.03 | 5.03 | 100 | 1013.1 |
| 20260510021031 | 68 | 49 | 2.0 | 7.0 | 0.04 | 5.03 | 5.03 | 100 | 1013.0 |
| 20260510020529 | 68 | 61 | 4.0 | 7.0 | 0.05 | 5.03 | 5.03 | 100 | 1012.8 |
| 20260510020041 | 68 | 25 | 2.0 | 5.0 | 0.05 | 5.03 | 5.03 | 100 | 1012.6 |
| 20260510015529 | 68 | 0 | 0.0 | 5.0 | 0.05 | 5.03 | 5.03 | 100 | 1012.7 |
| 20260510015029 | 68 | 38 | 1.0 | 5.0 | 0.05 | 5.03 | 5.03 | 100 | 1012.4 |
| 20260510014544 | 68 | 0 | 1.0 | 5.0 | 0.05 | 5.03 | 5.03 | 100 | 1012.4 |
| 20260510014029 | 68 | 322 | 1.0 | 5.0 | 0.06 | 5.03 | 5.03 | 100 | 1012.5 |
| 20260510013527 | 68 | 323 | 1.0 | 3.0 | 0.05 | 5.02 | 5.02 | 100 | 1012.7 |
| 20260510013051 | 68 | 319 | 1.0 | 3.0 | 0.03 | 5.00 | 5.00 | 100 | 1012.9 |
| 20260510012527 | 68 | 0 | 0.0 | 5.0 | 0.02 | 4.98 | 4.98 | 100 | 1013.3 |
| 20260510012027 | 68 | 134 | 1.0 | 5.0 | 0.02 | 4.98 | 4.98 | 100 | 1013.5 |
| 20260510011542 | 68 | 117 | 3.0 | 5.0 | 0.02 | 4.98 | 4.98 | 100 | 1013.4 |
| 20260510011026 | 68 | 66 | 0.0 | 5.0 | 0.02 | 4.98 | 4.98 | 100 | 1012.8 |
| 20260510010526 | 68 | 38 | 1.0 | 5.0 | 0.01 | 4.98 | 4.98 | 100 | 1012.8 |
| 20260510010041 | 68 | 26 | 2.0 | 5.0 | 0.01 | 4.98 | 4.98 | 100 | 1012.6 |
| 20260510005527 | 68 | 310 | 0.0 | 3.0 | 0.02 | 5.02 | 4.98 | 100 | 1012.6 |
| 20260510005029 | 68 | 0 | 0.0 | 1.0 | 0.03 | 5.02 | 4.98 | 100 | 1013.0 |
| 20260510004540 | 68 | 0 | 0.0 | 4.0 | 0.03 | 5.02 | 4.98 | 100 | 1012.7 |
| 20260510004029 | 68 | 0 | 1.0 | 4.0 | 0.03 | 5.01 | 4.96 | 100 | 1012.5 |
| 20260510003538 | 68 | 0 | 0.0 | 6.0 | 0.05 | 5.01 | 4.96 | 100 | 1012.9 |
| 20260510003056 | 68 | 0 | 0.0 | 6.0 | 0.05 | 5.01 | 4.96 | 100 | 1012.8 |
| 20260510002530 | 68 | 15 | 3.0 | 6.0 | 0.05 | 5.01 | 4.96 | 100 | 1012.8 |
| 20260510002029 | 67 | 0 | 0.0 | 2.0 | 0.05 | 5.01 | 4.96 | 100 | 1012.5 |
| 20260510001549 | 67 | 0 | 1.0 | 2.0 | 0.06 | 5.01 | 4.96 | 100 | 1012.8 |
| 20260510001026 | 67 | 0 | 0.0 | 1.0 | 0.06 | 5.01 | 4.96 | 100 | 1012.5 |
| 20260510000526 | 67 | 0 | 0.0 | 1.0 | 0.06 | 5.01 | 4.96 | 100 | 1013.0 |
| 20260510000046 | 67 | 84 | 0.0 | 1.0 | 0.06 | 5.01 | 4.96 | 100 | 1013.1 |
| 20260509235527 | 67 | 0 | 0.0 | 0.0 | 0.05 | 5.06 | 4.96 | 100 | 1013.0 |
| 20260509235027 | 67 | 0 | 0.0 | 0.0 | 0.04 | 5.05 | 4.94 | 100 | 1013.2 |
| 20260509234601 | 67 | 0 | 0.0 | 0.0 | 0.04 | 5.05 | 4.94 | 100 | 1013.2 |
| 20260509234029 | 67 | 0 | 0.0 | 0.0 | 0.03 | 5.04 | 4.94 | 100 | 1013.3 |
| 20260509233526 | 67 | 0 | 0.0 | 0.0 | 0.01 | 5.02 | 4.92 | 100 | 1013.5 |
| 20260509233046 | 67 | 0 | 0.0 | 1.0 | 0.01 | 5.02 | 4.92 | 100 | 1013.4 |
| 20260509232530 | 67 | 0 | 0.0 | 1.0 | 0.02 | 5.02 | 4.92 | 100 | 1013.4 |
| 20260509232030 | 67 | 0 | 0.0 | 2.0 | 0.02 | 5.02 | 4.92 | 100 | 1013.1 |
| 20260509231602 | 67 | 0 | 0.0 | 2.0 | 0.01 | 5.01 | 4.91 | 100 | 1013.4 |
| 20260509231027 | 67 | 0 | 0.0 | 2.0 | 0.01 | 5.01 | 4.91 | 100 | 1013.4 |
| 20260509230527 | 67 | 0 | 0.0 | 2.0 | 0.02 | 5.01 | 4.91 | 100 | 1013.1 |
| 20260509230041 | 67 | 77 | 0.0 | 2.0 | 0.02 | 5.01 | 4.91 | 100 | 1012.8 |
| 20260509225529 | 67 | 0 | 0.0 | 2.0 | 0.03 | 5.10 | 4.91 | 100 | 1012.5 |
| 20260509225029 | 67 | 0 | 0.0 | 2.0 | 0.03 | 5.10 | 4.91 | 100 | 1012.3 |
| 20260509224546 | 67 | 0 | 0.0 | 2.0 | 0.03 | 5.10 | 4.91 | 100 | 1012.1 |
| 20260509224027 | 67 | 144 | 0.0 | 2.0 | 0.03 | 5.10 | 4.91 | 100 | 1011.9 |
| 20260509223527 | 67 | 0 | 0.0 | 0.0 | 0.03 | 5.10 | 4.91 | 100 | 1011.9 |
| 20260509223045 | 67 | 0 | 0.0 | 2.0 | 0.03 | 5.10 | 4.91 | 100 | 1011.8 |
| 20260509222526 | 67 | 0 | 0.0 | 2.0 | 0.02 | 5.09 | 4.90 | 100 | 1012.0 |
| 20260509222028 | 67 | 6 | 0.0 | 5.0 | 0.02 | 5.09 | 4.90 | 100 | 1012.2 |
| 20260509221544 | 67 | 0 | 2.0 | 7.0 | 0.02 | 5.09 | 4.90 | 100 | 1012.4 |
| 20260509221029 | 67 | 0 | 4.0 | 7.0 | 0.01 | 5.08 | 4.89 | 100 | 1012.6 |
| 20260509220526 | 67 | 39 | 1.0 | 5.0 | 0.01 | 5.08 | 4.89 | 100 | 1012.8 |
| 20260509220043 | 67 | 20 | 2.0 | 5.0 | 0.00 | 5.07 | 4.88 | 100 | 1012.7 |
| 20260509215527 | 67 | 41 | 3.0 | 5.0 | 0.00 | 5.38 | 4.88 | 100 | 1012.7 |
| 20260509215026 | 67 | 58 | 0.0 | 5.0 | 0.00 | 5.38 | 4.88 | 100 | 1012.7 |
| 20260509214542 | 67 | 60 | 1.0 | 5.0 | 0.00 | 5.38 | 4.88 | 100 | 1012.7 |
| 20260509214026 | 67 | 357 | 0.0 | 3.0 | 0.00 | 5.38 | 4.88 | 100 | 1012.5 |
| 20260509213526 | 67 | 0 | 0.0 | 3.0 | 0.00 | 5.38 | 4.88 | 100 | 1012.3 |
| 20260509213049 | 67 | 0 | 0.0 | 4.0 | 0.00 | 5.38 | 4.88 | 100 | 1011.9 |
| 20260509212530 | 67 | 0 | 1.0 | 6.0 | 0.01 | 5.38 | 4.88 | 100 | 1011.6 |
| 20260509212026 | 67 | 72 | 3.0 | 6.0 | 0.01 | 5.38 | 4.88 | 100 | 1011.2 |
| 20260509211555 | 67 | 32 | 2.0 | 6.0 | 0.01 | 5.38 | 4.88 | 100 | 1011.2 |
| 20260509211029 | 67 | 40 | 2.0 | 6.0 | 0.02 | 5.38 | 4.88 | 100 | 1011.2 |
| 20260509210526 | 67 | 48 | 2.0 | 5.0 | 0.03 | 5.38 | 4.88 | 100 | 1011.2 |
| 20260509210058 | 67 | 0 | 0.0 | 5.0 | 0.04 | 5.38 | 4.88 | 100 | 1011.3 |
| 20260509205529 | 67 | 39 | 1.0 | 5.0 | 0.05 | 5.59 | 4.88 | 100 | 1011.1 |
| 20260509205027 | 67 | 0 | 2.0 | 4.0 | 0.07 | 5.59 | 4.88 | 100 | 1011.3 |
| 20260509204544 | 67 | 0 | 0.0 | 3.0 | 0.08 | 5.59 | 4.88 | 100 | 1011.5 |
| 20260509204029 | 67 | 41 | 0.0 | 3.0 | 0.09 | 5.59 | 4.88 | 100 | 1011.8 |
| 20260509203526 | 67 | 0 | 0.0 | 3.0 | 0.11 | 5.59 | 4.88 | 100 | 1012.0 |
| 20260509203045 | 67 | 74 | 1.0 | 4.0 | 0.13 | 5.59 | 4.88 | 100 | 1012.6 |
| 20260509202526 | 67 | 0 | 0.0 | 4.0 | 0.14 | 5.58 | 4.87 | 100 | 1012.9 |
| 20260509202030 | 67 | 83 | 1.0 | 3.0 | 0.15 | 5.58 | 4.87 | 100 | 1013.1 |
| 20260509201554 | 66 | 0 | 1.0 | 5.0 | 0.16 | 5.58 | 4.87 | 100 | 1012.9 |
| 20260509201026 | 67 | 56 | 0.0 | 5.0 | 0.17 | 5.57 | 4.86 | 100 | 1012.8 |
| 20260509200526 | 67 | 37 | 1.0 | 6.0 | 0.18 | 5.56 | 4.85 | 100 | 1012.6 |
| 20260509200042 | 67 | 0 | 1.0 | 6.0 | 0.19 | 5.55 | 4.84 | 100 | 1012.6 |
| 20260509195527 | 67 | 49 | 2.0 | 4.0 | 0.23 | 5.57 | 4.83 | 100 | 1012.8 |
| 20260509195033 | 67 | 56 | 0.0 | 3.0 | 0.28 | 5.55 | 4.81 | 100 | 1012.8 |
| 20260509194548 | 67 | 0 | 2.0 | 6.0 | 0.30 | 5.54 | 4.80 | 100 | 1012.6 |
| 20260509194026 | 67 | 326 | 0.0 | 7.0 | 0.30 | 5.52 | 4.78 | 100 | 1012.5 |
| 20260509193528 | 67 | 0 | 3.0 | 7.0 | 0.31 | 5.51 | 4.77 | 100 | 1012.8 |
| 20260509193052 | 67 | 0 | 3.0 | 6.0 | 0.30 | 5.49 | 4.75 | 100 | 1013.6 |
| 20260509192529 | 67 | 0 | 2.0 | 6.0 | 0.30 | 5.47 | 4.73 | 100 | 1013.3 |
| 20260509192027 | 67 | 44 | 2.0 | 6.0 | 0.30 | 5.46 | 4.71 | 100 | 1013.3 |